Weather History for KGHG - March, 2013

Change the Weather History Date:

Friday, March 22, 2013

  Actual Average (KPYM) Record (KPYM)
Temperature  
Mean Temperature 36 °F -  
Max Temperature 41 °F 46 °F 80 °F (2012)
Min Temperature 30 °F 27 °F 11 °F (1986)
Degree Days  
Heating Degree Days 30    
Moisture  
Dew Point 24 °F    
Average Humidity 68    
Maximum Humidity 100    
Minimum Humidity 39    
Precipitation  
Precipitation 0.04 in - - ()
Sea Level Pressure  
Sea Level Pressure 29.67 in    
Wind  
Wind Speed 4 mph (West)    
Max Wind Speed 14 mph    
Max Gust Speed 22 mph    
Visibility 9 miles    
Events      
Averages and records for this station are not official NWS values.
T = Trace of Precipitation, MM = Missing Value Source: NWS Daily Summary

Daily Weather History Graph

Daily Weather History Graph

Search for Another Location

Airport or City:

Trip Planner

Search our weather history database for the weather conditions in past years. The results will help you decide how hot, cold, wet, or windy it might be!

Date:

Astronomy

Mar. 22, 2013 Rise Set
Actual Time 6:42 AM EDT 6:57 PM EDT
Civil Twilight 6:14 AM EDT 7:25 PM EDT
Nautical Twilight 5:41 AM EDT 7:58 PM EDT
Astronomical Twilight 5:08 AM EDT 8:31 PM EDT
Moon 2:17 PM EDT (3/22) 3:45 AM EDT (3/22)
Length of Visible Light 13h 11m
Length of Day
12h 15m
Waxing Gibbous, 77% of the Moon is Illuminated
Mar 22
Waxing Gibbous
Mar 27
Full
Apr 3
Last Quarter
Apr 10
New
Apr 18
First Quarter

Hourly Weather History & Observations

Time (EDT) Temp. Windchill Dew Point Humidity Pressure Visibility Wind Dir Wind Speed Gust Speed Precip Events Conditions
12:15 AM 32.0 °F - 32.0 °F 100% 29.62 in 4.0 mi Calm Calm - 0.01 in   Overcast
12:35 AM 32.0 °F - 32.0 °F 100% 29.62 in 2.0 mi Calm Calm - 0.02 in   Overcast
12:55 AM 32.0 °F - 32.0 °F 100% 29.62 in 10.0 mi Calm Calm - 0.03 in   Mostly Cloudy
1:15 AM 32.0 °F - 32.0 °F 100% 29.62 in 10.0 mi Calm Calm - N/A   Scattered Clouds
1:35 AM 32.0 °F 27.5 °F 32.0 °F 100% 29.62 in 10.0 mi West 4.6 mph - 0.01 in   Mostly Cloudy
1:55 AM 32.0 °F 25.6 °F 32.0 °F 100% 29.61 in 4.0 mi West 6.9 mph - 0.01 in   Mostly Cloudy
2:15 AM 32.0 °F 26.4 °F 30.2 °F 93% 29.62 in 5.0 mi West 5.8 mph - N/A   Mostly Cloudy
2:35 AM 32.0 °F 28.7 °F 30.2 °F 93% 29.62 in 10.0 mi West 3.5 mph - N/A   Overcast
2:55 AM 32.0 °F - 30.2 °F 93% 29.62 in 2.5 mi Calm Calm - N/A   Overcast
3:15 AM 32.0 °F 26.4 °F 28.4 °F 87% 29.62 in 1.5 mi West 5.8 mph - N/A   Overcast
3:35 AM 32.0 °F 28.7 °F 28.4 °F 87% 29.61 in 5.0 mi NW 3.5 mph - N/A   Overcast
3:55 AM 32.0 °F - 28.4 °F 87% 29.61 in 10.0 mi Calm Calm - N/A   Overcast
4:15 AM 32.0 °F 28.7 °F 28.4 °F 87% 29.61 in 10.0 mi West 3.5 mph - N/A   Mostly Cloudy
4:35 AM 32.0 °F 28.7 °F 26.6 °F 80% 29.61 in 10.0 mi West 3.5 mph - N/A   Partly Cloudy
4:55 AM 32.0 °F 28.7 °F 26.6 °F 80% 29.61 in 10.0 mi West 3.5 mph - N/A   Clear
5:15 AM 32.0 °F 27.5 °F 26.6 °F 80% 29.61 in 10.0 mi West 4.6 mph - N/A   Clear
5:35 AM 32.0 °F 28.7 °F 26.6 °F 80% 29.62 in 10.0 mi West 3.5 mph - N/A   Scattered Clouds
5:55 AM 32.0 °F 27.5 °F 26.6 °F 80% 29.63 in 10.0 mi WNW 4.6 mph - N/A   Overcast
6:15 AM 32.0 °F 27.5 °F 26.6 °F 80% 29.63 in 8.0 mi West 4.6 mph - N/A   Mostly Cloudy
6:35 AM 32.0 °F 27.5 °F 26.6 °F 80% 29.63 in 10.0 mi West 4.6 mph - N/A   Partly Cloudy
6:55 AM 32.0 °F 27.5 °F 26.6 °F 80% 29.64 in 10.0 mi West 4.6 mph - N/A   Clear
7:15 AM 30.2 °F 26.7 °F 26.6 °F 86% 29.64 in 10.0 mi West 3.5 mph - N/A   Clear
7:35 AM 30.2 °F 26.7 °F 26.6 °F 86% 29.65 in 10.0 mi West 3.5 mph - N/A   Partly Cloudy
7:55 AM 30.2 °F 25.4 °F 26.6 °F 86% 29.66 in 10.0 mi West 4.6 mph - N/A   Scattered Clouds
8:15 AM 30.2 °F 24.3 °F 28.4 °F 93% 29.67 in 10.0 mi West 5.8 mph - N/A   Mostly Cloudy
8:35 AM 32.0 °F - 26.6 °F 80% 29.67 in 10.0 mi Calm Calm - N/A   Mostly Cloudy
8:55 AM 32.0 °F - 26.6 °F 80% 29.67 in 10.0 mi Calm Calm - N/A   Scattered Clouds
9:15 AM 32.0 °F 27.5 °F 26.6 °F 80% 29.67 in 10.0 mi West 4.6 mph - N/A   Partly Cloudy
9:35 AM 33.8 °F 28.6 °F 26.6 °F 75% 29.68 in 10.0 mi NW 5.8 mph - N/A   Clear
9:55 AM 33.8 °F 29.6 °F 26.6 °F 75% 29.68 in 10.0 mi NW 4.6 mph - N/A   Mostly Cloudy
10:15 AM 33.8 °F 29.6 °F 24.8 °F 70% 29.68 in 10.0 mi WNW 4.6 mph - N/A   Mostly Cloudy
10:35 AM 35.6 °F 29.9 °F 26.6 °F 70% 29.68 in 10.0 mi NW 6.9 mph - N/A   Mostly Cloudy
10:55 AM 35.6 °F 30.7 °F 26.6 °F 70% 29.68 in 10.0 mi NW 5.8 mph - N/A   Scattered Clouds
11:15 AM 35.6 °F 28.6 °F 24.8 °F 65% 29.68 in 10.0 mi North 9.2 mph - N/A   Mostly Cloudy
11:35 AM 35.6 °F 29.2 °F 24.8 °F 65% 29.68 in 10.0 mi North 8.1 mph - N/A   Mostly Cloudy
11:55 AM 35.6 °F 31.7 °F 24.8 °F 65% 29.68 in 10.0 mi WNW 4.6 mph - N/A   Mostly Cloudy
12:15 PM 37.4 °F 32.8 °F 23.0 °F 56% 29.68 in 10.0 mi NW 5.8 mph - N/A   Mostly Cloudy
12:35 PM 37.4 °F - 23.0 °F 56% 29.67 in 10.0 mi Calm Calm - N/A   Scattered Clouds
12:55 PM 37.4 °F 32.1 °F 21.2 °F 52% 29.67 in 10.0 mi WSW 6.9 mph - N/A   Partly Cloudy
1:15 PM 39.2 °F 34.2 °F 19.4 °F 45% 29.67 in 10.0 mi West 6.9 mph - N/A   Scattered Clouds
1:35 PM 39.2 °F 35.9 °F 17.6 °F 42% 29.66 in 10.0 mi West 4.6 mph - N/A   Mostly Cloudy
1:55 PM 39.2 °F 33.6 °F 19.4 °F 45% 29.66 in 10.0 mi WSW 8.1 mph - N/A   Mostly Cloudy
2:15 PM 39.2 °F 32.5 °F 17.6 °F 42% 29.66 in 10.0 mi West 10.4 mph 20.7 mph N/A   Scattered Clouds
2:35 PM 37.4 °F 30.8 °F 17.6 °F 45% 29.66 in 10.0 mi West 9.2 mph - N/A   Scattered Clouds
2:55 PM 41.0 °F 34.7 °F 17.6 °F 39% 29.66 in 10.0 mi WSW 10.4 mph 19.6 mph N/A   Scattered Clouds
3:15 PM 39.2 °F 33.6 °F 17.6 °F 42% 29.66 in 9.0 mi West 8.1 mph - N/A   Partly Cloudy
3:35 PM 39.2 °F 33.0 °F 17.6 °F 42% 29.66 in 10.0 mi West 9.2 mph 19.6 mph N/A   Scattered Clouds
3:55 PM 39.2 °F 33.6 °F 19.4 °F 45% 29.66 in 3.0 mi West 8.1 mph - N/A   Haze
4:15 PM 39.2 °F 34.2 °F 19.4 °F 45% 29.66 in 10.0 mi West 6.9 mph - N/A   Partly Cloudy
4:35 PM 39.2 °F 32.5 °F 19.4 °F 45% 29.66 in 10.0 mi WSW 10.4 mph 20.7 mph N/A   Mostly Cloudy
4:55 PM 39.2 °F 33.0 °F 19.4 °F 45% 29.66 in 10.0 mi WSW 9.2 mph 17.3 mph N/A   Mostly Cloudy
5:15 PM 39.2 °F 37.0 °F 19.4 °F 45% 29.66 in 10.0 mi West 3.5 mph - N/A   Scattered Clouds
5:35 PM 39.2 °F 33.6 °F 17.6 °F 42% 29.67 in 10.0 mi West 8.1 mph 19.6 mph N/A   Scattered Clouds
5:55 PM 39.2 °F 31.2 °F 19.4 °F 45% 29.68 in 10.0 mi West 13.8 mph 20.7 mph N/A   Scattered Clouds
6:15 PM 39.2 °F 34.2 °F 19.4 °F 45% 29.69 in 10.0 mi West 6.9 mph 16.1 mph N/A   Scattered Clouds
6:35 PM 37.4 °F 28.9 °F 21.2 °F 52% 29.69 in 10.0 mi West 13.8 mph 21.9 mph N/A   Mostly Cloudy
6:55 PM 37.4 °F 30.8 °F 21.2 °F 52% 29.70 in 10.0 mi West 9.2 mph 17.3 mph N/A   Mostly Cloudy
7:15 PM 37.4 °F 30.8 °F 21.2 °F 52% 29.71 in 10.0 mi WSW 9.2 mph - N/A   Partly Cloudy
7:35 PM 35.6 °F 29.2 °F 21.2 °F 56% 29.71 in 10.0 mi West 8.1 mph - N/A   Clear
7:55 PM 35.6 °F 28.6 °F 23.0 °F 60% 29.72 in 10.0 mi WSW 9.2 mph - N/A   Clear
8:15 PM 35.6 °F 29.9 °F 23.0 °F 60% 29.73 in 10.0 mi WSW 6.9 mph - N/A   Clear
8:35 PM 35.6 °F 29.2 °F 23.0 °F 60% 29.73 in 10.0 mi WSW 8.1 mph - N/A   Clear
8:55 PM 35.6 °F 29.2 °F 23.0 °F 60% 29.74 in 10.0 mi WSW 8.1 mph - N/A   Clear
9:15 PM 35.6 °F 30.7 °F 23.0 °F 60% 29.74 in 10.0 mi WSW 5.8 mph - N/A   Clear
9:35 PM 33.8 °F 28.6 °F 23.0 °F 65% 29.74 in 10.0 mi WSW 5.8 mph - N/A   Clear
9:55 PM 33.8 °F 28.6 °F 23.0 °F 65% 29.74 in 10.0 mi WSW 5.8 mph - N/A   Clear
10:15 PM 33.8 °F 28.6 °F 23.0 °F 65% 29.75 in 10.0 mi WSW 5.8 mph - N/A   Clear
10:35 PM 33.8 °F 27.0 °F 23.0 °F 65% 29.75 in 10.0 mi WSW 8.1 mph - N/A   Clear
10:55 PM 33.8 °F 27.7 °F 23.0 °F 65% 29.75 in 10.0 mi West 6.9 mph - N/A   Clear
11:15 PM 33.8 °F 26.4 °F 21.2 °F 60% 29.75 in 10.0 mi WSW 9.2 mph - N/A   Clear
11:35 PM 33.8 °F 27.7 °F 21.2 °F 60% 29.75 in 10.0 mi WSW 6.9 mph - N/A   Clear
11:55 PM 33.8 °F 27.0 °F 21.2 °F 60% 29.75 in 10.0 mi West 8.1 mph - N/A   Clear